Seldovia, AK

7:58 PM AKST on February 07, 2016 (GMT -0900)
Seldovia

Weather History for PASO - August, 2014

Change the Weather History Date:

Saturday, August 23, 2014

  Actual Average (PAHO) Record (PAHO)
Temperature  
Mean Temperature 52 °F -  
Max Temperature 57 °F 60 °F 69 °F (1987)
Min Temperature 46 °F 44 °F 35 °F (1946)
Degree Days  
Heating Degree Days 14    
Growing Degree Days 2 (Base 50)    
Moisture  
Dew Point 51 °F    
Average Humidity 96    
Maximum Humidity 100    
Minimum Humidity 82    
Precipitation  
Precipitation 0.12 in - - ()
Sea Level Pressure  
Sea Level Pressure 30.12 in    
Wind  
Wind Speed 1 mph (NNE)    
Max Wind Speed 6 mph    
Max Gust Speed -    
Visibility 9 miles    
Events Rain    
Averages and records for this station are not official NWS values.
T = Trace of Precipitation, MM = Missing Value Source: NWS Daily Summary

Daily Weather History Graph

Daily Weather History Graph

Search for Another Location

Airport or City:

Trip Planner

Search our weather history database for the weather conditions in past years. The results will help you decide how hot, cold, wet, or windy it might be!

Date:

Astronomy

Aug. 23, 2014 Rise Set
Actual Time 6:42 AM AKDT 9:34 PM AKDT
Civil Twilight 5:56 AM AKDT 10:20 PM AKDT
Nautical Twilight 4:52 AM AKDT 11:23 PM AKDT
Astronomical Twilight 3:13 AM AKDT 12:56 AM AKDT
Moon 5:00 AM AKDT (8/23) 8:25 PM AKDT (8/23)
Length of Visible Light 16h 24m
Length of Day
14h 51m
Waning Crescent, 3% of the Moon is Illuminated
Aug 23
Waning Crescent
Aug 25
New
Sep 2
First Quarter
Sep 8
Full
Sep 15
Last Quarter

Hourly Weather History & Observations

Time (AKDT) Temp. Dew Point Humidity Pressure Visibility Wind Dir Wind Speed Gust Speed Precip Events Conditions
12:53 AM 48.9 °F 48.0 °F 97% 30.24 in 9.0 mi Calm Calm - N/A   Clear
1:53 AM 48.0 °F 48.0 °F 100% 30.24 in 9.0 mi Calm Calm - N/A   Clear
2:53 AM 46.9 °F 46.0 °F 97% 30.23 in 8.0 mi Calm Calm - N/A   Clear
3:53 AM 46.9 °F 46.0 °F 97% 30.22 in 7.0 mi Calm Calm - N/A   Clear
4:53 AM 46.0 °F 45.0 °F 96% 30.22 in 9.0 mi Calm Calm - N/A   Clear
5:53 AM 46.0 °F 45.0 °F 96% 30.21 in 9.0 mi Calm Calm - N/A   Clear
6:53 AM 46.9 °F 46.0 °F 97% 30.21 in 9.0 mi Calm Calm - N/A   Clear
7:53 AM 48.9 °F 48.0 °F 97% 30.19 in 9.0 mi Calm Calm - N/A   Clear
8:53 AM 52.0 °F 52.0 °F 100% 30.19 in 10.0 mi Calm Calm - N/A   Clear
9:53 AM 55.0 °F 54.0 °F 96% 30.17 in 10.0 mi NNE 3.5 mph - N/A   Clear
10:53 AM 55.9 °F 53.1 °F 90% 30.17 in 10.0 mi Calm Calm - N/A   Scattered Clouds
11:53 AM 55.9 °F 52.0 °F 87% 30.16 in 10.0 mi South 4.6 mph - N/A   Clear
12:16 PM 57.2 °F 51.8 °F 82% 30.16 in 10.0 mi Variable 5.8 mph - N/A   Mostly Cloudy
1:53 PM 55.0 °F 52.0 °F 89% 30.16 in 10.0 mi NNE 4.6 mph - N/A   Overcast
2:53 PM 54.0 °F 52.0 °F 93% 30.14 in 10.0 mi Calm Calm - 0.00 in Rain Light Rain
3:12 PM 53.6 °F 51.8 °F 94% 30.14 in 10.0 mi North 3.5 mph - 0.00 in   Overcast
3:48 PM 55.4 °F 53.6 °F 94% 30.13 in 10.0 mi Calm Calm - 0.00 in   Overcast
3:53 PM 55.0 °F 53.1 °F 93% 30.13 in 10.0 mi Calm Calm - 0.00 in   Mostly Cloudy
4:02 PM 55.4 °F 51.8 °F 88% 30.12 in 10.0 mi Calm Calm - N/A   Overcast
4:13 PM 55.4 °F 53.6 °F 94% 30.12 in 10.0 mi Calm Calm - 0.00 in Rain Light Rain
4:31 PM 53.6 °F 53.6 °F 100% 30.11 in 8.0 mi NNE 4.6 mph - 0.01 in Rain Light Rain
4:53 PM 54.0 °F 53.1 °F 97% 30.11 in 7.0 mi Calm Calm - 0.02 in Rain Light Rain
5:17 PM 53.6 °F 53.6 °F 100% 30.09 in 5.0 mi Calm Calm - 0.03 in Rain Light Rain
5:43 PM 55.4 °F 53.6 °F 94% 30.08 in 9.0 mi Calm Calm - 0.03 in Rain Light Rain
5:53 PM 55.0 °F 54.0 °F 96% 30.08 in 10.0 mi Calm Calm - 0.03 in Rain Light Rain
6:21 PM 53.6 °F 53.6 °F 100% 30.06 in 10.0 mi Calm Calm - 0.01 in Rain Light Rain
6:53 PM 54.0 °F 53.1 °F 97% 30.05 in 9.0 mi Calm Calm - 0.01 in Rain Light Rain
7:53 PM 54.0 °F 53.1 °F 97% 30.02 in 6.0 mi Calm Calm - 0.02 in Rain Light Rain
8:41 PM 53.6 °F 53.6 °F 100% 30.00 in 10.0 mi Calm Calm - 0.00 in   Overcast
8:53 PM 53.1 °F 53.1 °F 100% 30.00 in 10.0 mi Calm Calm - 0.00 in   Overcast
9:17 PM 53.6 °F 51.8 °F 94% 29.98 in 10.0 mi Calm Calm - 0.00 in Rain Light Rain
9:53 PM 52.0 °F 52.0 °F 100% 29.98 in 6.0 mi Calm Calm - 0.02 in Rain Rain
10:53 PM 51.1 °F 51.1 °F 100% 29.96 in 10.0 mi Calm Calm - 0.02 in   Overcast
11:53 PM 51.1 °F 51.1 °F 100% 29.94 in 10.0 mi Calm Calm - 0.00 in Rain Light Rain